TimePST,TemperatureF,Dew PointF,Humidity,Sea Level PressureIn,VisibilityMPH,Wind Direction,Wind SpeedMPH,Gust SpeedMPH,PrecipitationIn,Events,Conditions,WindDirDegrees,DateUTC
12:53 AM,39.9,25.0,55,29.76,10.0,South,19.6,26.5,N/A,,Overcast,190,2014-02-17 08:53:00
1:53 AM,41.0,25.0,53,29.73,10.0,SSW,23.0,33.4,N/A,,Overcast,210,2014-02-17 09:53:00
2:53 AM,41.0,26.1,55,29.72,10.0,SSW,26.5,35.7,N/A,,Overcast,210,2014-02-17 10:53:00
3:53 AM,39.9,27.0,60,29.71,10.0,SSW,25.3,32.2,0.00,Rain,Light Rain,210,2014-02-17 11:53:00
4:53 AM,41.0,27.0,57,29.70,10.0,SSW,24.2,33.4,0.00,Rain,Light Rain,210,2014-02-17 12:53:00
5:53 AM,39.9,28.9,65,29.70,10.0,SW,31.1,48.3,0.00,Rain,Light Rain,220,2014-02-17 13:53:00
6:53 AM,39.0,30.9,73,29.68,10.0,SW,27.6,36.8,0.00,Rain,Light Rain,220,2014-02-17 14:53:00
7:53 AM,39.9,30.9,70,29.68,10.0,SW,25.3,-,0.00,,Overcast,220,2014-02-17 15:53:00
8:53 AM,39.9,32.0,73,29.68,10.0,SW,26.5,34.5,0.00,Rain,Light Rain,220,2014-02-17 16:53:00
9:53 AM,37.0,33.1,86,29.68,10.0,SSW,21.9,-,0.00,Rain-Snow,Light Rain,210,2014-02-17 17:53:00
10:13 AM,37.0,34.0,89,29.64,6.0,SW,24.2,34.5,0.01,Rain,Light Rain,220,2014-02-17 18:13:00
10:24 AM,37.0,34.0,89,29.64,3.0,SSW,19.6,-,0.03,Rain,Light Rain,210,2014-02-17 18:24:00
10:27 AM,37.0,34.0,89,29.64,7.0,SW,18.4,26.5,0.03,Rain,Light Rain,220,2014-02-17 18:27:00
10:53 AM,39.0,35.1,86,29.65,10.0,SSW,20.7,-,0.03,,Mostly Cloudy,200,2014-02-17 18:53:00
11:53 AM,41.0,34.0,76,29.65,10.0,SSW,19.6,29.9,N/A,,Overcast,210,2014-02-17 19:53:00
12:53 PM,42.1,35.1,76,29.64,10.0,SW,24.2,31.1,N/A,,Overcast,230,2014-02-17 20:53:00
1:53 PM,43.0,36.0,76,29.62,10.0,SW,25.3,35.7,N/A,,Overcast,230,2014-02-17 21:53:00
2:53 PM,43.0,36.0,76,29.63,10.0,SW,26.5,32.2,N/A,,Mostly Cloudy,230,2014-02-17 22:53:00
3:53 PM,44.1,32.0,63,29.65,10.0,WSW,32.2,42.6,N/A,,Mostly Cloudy,240,2014-02-17 23:53:00
4:53 PM,42.1,28.0,58,29.68,10.0,WSW,26.5,-,N/A,,Partly Cloudy,240,2014-02-18 00:53:00
5:53 PM,37.9,27.0,65,29.70,10.0,SW,23.0,-,N/A,,Partly Cloudy,230,2014-02-18 01:53:00
6:53 PM,37.0,27.0,67,29.73,10.0,WSW,23.0,32.2,N/A,,Partly Cloudy,240,2014-02-18 02:53:00
7:53 PM,35.1,26.1,70,29.77,10.0,SW,18.4,26.5,N/A,,Clear,230,2014-02-18 03:53:00
8:53 PM,35.1,25.0,67,29.81,10.0,WSW,21.9,-,N/A,,Partly Cloudy,240,2014-02-18 04:53:00
9:53 PM,33.1,25.0,72,29.85,10.0,SW,17.3,-,N/A,,Partly Cloudy,230,2014-02-18 05:53:00
10:53 PM,33.1,26.1,75,29.87,10.0,SW,16.1,-,N/A,,Mostly Cloudy,230,2014-02-18 06:53:00
11:53 PM,32.0,24.1,73,29.90,10.0,WSW,16.1,-,N/A,,Scattered Clouds,240,2014-02-18 07:53:00